Hourly Data Report for May 29, 2004

SHERBROOKE A
QUEBEC

45°26'00.000" N
71°41'00.000" W
241.40 m
7028124
71610
YSC

Download Data

Hourly Data (May 2004)
Hourly Data Report for May 29, 2004
TIME
LST
Temp Definition
°C
Dew Point Definition
°C
Rel Hum Definition
%
Precip. Amount Definition
mm

Wind Dir Definition
10's deg

Wind Spd Definition
km/h
Visibility Definition
km
Stn Press Definition
kPa
Hmdx Definition


Wind Chill Definition


Weather Definition


00:00 6.4 1.9 73   30 9 15.0 97.82      
01:00 4.8 0.5 74   30 9 15.0 97.82      
02:00 3.3 0.2 80   28 4 15.0 97.85      
03:00 3.3 0.1 80   28 7 15.0 97.86      
04:00 2.9 0.0 81   27 7 15.0 97.93      
05:00 2.4 -1.2 77   28 9 15.0 98.01      
06:00 4.2 -0.8 70   29 17 15.0 98.07      
07:00 5.1 -1.5 62   30 24 24.1 98.12     Mainly Clear
08:00 6.1 -2.0 56   31 20 24.1 98.13     Mainly Clear
09:00 7.4 0.3 61   28 30 24.1 98.13     Mostly Cloudy
10:00 7.9 0.4 59   28 32 24.1 98.14     Mostly Cloudy
11:00 7.9 -0.7 55   29 30 24.1 98.14     Cloudy
12:00 9.0 0.6 56   30 20 24.1 98.13     Cloudy
13:00 8.8 0.8 57   30 19 24.1 98.13     Rain Showers
14:00 10.0 1.0 54   29 22 24.1 98.16     Mostly Cloudy
15:00 11.0 0.6 49   30 33 24.1 98.14     Mostly Cloudy
16:00 10.8 0.9 50   28 17 24.1 98.11     Mostly Cloudy
17:00 11.6 0.5 46   30 22 15.0 98.10      
18:00 10.6 0.5 50   30 13 15.0 98.15      
19:00 9.7 1.0 55   30 15 15.0 98.20      
20:00 9.7 0.5 53   31 13 15.0 98.25      
21:00 8.1 0.4 58   30 13 15.0 98.36      
22:00 6.6 0.3 64   31 11 15.0 98.40      
23:00 6.3 -0.8 60   30 7 15.0 98.41      

Notes on Data Quality.

Legend

  • E = Estimated
  • M = Missing
  • NA = Not Available*
  • [empty] = Indicates an unobserved value
Date modified: